Location: Eferding
(48.3167°N, 14.0167°E)
Time: 20:47:57
(UTC+00:00)

Cosmos 2123 Rocket - Pass Details

Date: 12 November 2019
Orbit: 961 x 992 km, 82.9° (Epoch: 13 December)

Event Time Altitude Azimuth Distance (km) Brightness Sun altitude
Rises 16:26:19 0° 190° (S) 3,659 7.4 -9.6°
Reaches altitude 10° 16:28:49 10° 192° (SSW) 2,711 6.7 -10.0°
Maximum altitude 16:35:02 80° 279° (W) 987 4.1 -11.0°
Drops below altitude 10° 16:41:16 10° 7° (N) 2,712 6.1 -12.0°
Sets 16:43:47 0° 9° (N) 3,661 6.8 -12.5°
